TimeEST,TemperatureF,Dew PointF,Humidity,Sea Level PressureIn,VisibilityMPH,Wind Direction,Wind SpeedMPH,Gust SpeedMPH,PrecipitationIn,Events,Conditions,WindDirDegrees,DateUTC
12:15 AM,42.8,26.6,53,30.17,10.0,SW,6.9,-,N/A,,Clear,220,2012-11-27 05:15:00
12:35 AM,44.6,26.6,49,30.17,10.0,SW,5.8,-,N/A,,Clear,220,2012-11-27 05:35:00
12:55 AM,46.4,26.6,46,30.17,10.0,SW,5.8,-,N/A,,Scattered Clouds,220,2012-11-27 05:55:00
1:15 AM,44.6,26.6,49,30.17,10.0,SW,6.9,-,N/A,,Partly Cloudy,220,2012-11-27 06:15:00
1:35 AM,44.6,26.6,49,30.17,10.0,SW,5.8,-,N/A,,Clear,220,2012-11-27 06:35:00
1:55 AM,44.6,26.6,49,30.16,10.0,SSW,5.8,-,N/A,,Clear,210,2012-11-27 06:55:00
2:15 AM,42.8,26.6,53,30.17,10.0,SW,6.9,-,N/A,,Partly Cloudy,220,2012-11-27 07:15:00
2:35 AM,48.2,28.4,46,30.17,10.0,SW,9.2,-,N/A,,Mostly Cloudy,220,2012-11-27 07:35:00
2:55 AM,48.2,28.4,46,30.16,10.0,SW,5.8,-,N/A,,Mostly Cloudy,230,2012-11-27 07:55:00
3:15 AM,48.2,28.4,46,30.16,10.0,SW,5.8,-,N/A,,Mostly Cloudy,230,2012-11-27 08:15:00
3:35 AM,48.2,28.4,46,30.15,10.0,SW,5.8,-,N/A,,Scattered Clouds,220,2012-11-27 08:35:00
3:55 AM,48.2,28.4,46,30.14,10.0,SW,3.5,-,N/A,,Partly Cloudy,220,2012-11-27 08:55:00
4:15 AM,46.4,28.4,50,30.15,10.0,SW,5.8,-,N/A,,Clear,230,2012-11-27 09:15:00
4:35 AM,48.2,28.4,46,30.14,10.0,SW,5.8,-,N/A,,Scattered Clouds,220,2012-11-27 09:35:00
4:55 AM,48.2,28.4,46,30.14,10.0,SW,5.8,-,N/A,,Scattered Clouds,220,2012-11-27 09:55:00
5:15 AM,48.2,28.4,46,30.16,10.0,West,4.6,-,N/A,,Partly Cloudy,260,2012-11-27 10:15:00
5:35 AM,46.4,28.4,50,30.14,10.0,SW,4.6,-,N/A,,Mostly Cloudy,220,2012-11-27 10:35:00
5:55 AM,46.4,30.2,53,30.14,10.0,SSW,3.5,-,N/A,,Overcast,200,2012-11-27 10:55:00
6:15 AM,46.4,28.4,50,30.15,10.0,WSW,5.8,-,N/A,,Overcast,250,2012-11-27 11:15:00
6:35 AM,48.2,28.4,46,30.15,10.0,SW,5.8,-,N/A,,Overcast,230,2012-11-27 11:35:00
6:55 AM,48.2,28.4,46,30.16,10.0,WSW,5.8,-,N/A,,Overcast,240,2012-11-27 11:55:00
7:15 AM,48.2,28.4,46,30.15,10.0,SW,4.6,-,N/A,,Overcast,220,2012-11-27 12:15:00
7:35 AM,48.2,28.4,46,30.16,10.0,WSW,4.6,-,N/A,,Overcast,240,2012-11-27 12:35:00
7:55 AM,48.2,28.4,46,30.18,10.0,WSW,8.1,-,N/A,,Overcast,240,2012-11-27 12:55:00
8:15 AM,46.4,33.8,62,30.18,10.0,WSW,6.9,-,N/A,,Overcast,240,2012-11-27 13:15:00
8:35 AM,46.4,35.6,66,30.16,10.0,Calm,Calm,-,N/A,,Overcast,0,2012-11-27 13:35:00
8:55 AM,46.4,35.6,66,30.16,10.0,Calm,Calm,-,N/A,,Overcast,0,2012-11-27 13:55:00
9:15 AM,46.4,37.4,71,30.16,10.0,Calm,Calm,-,N/A,,Overcast,0,2012-11-27 14:15:00
9:35 AM,50.0,37.4,62,30.16,10.0,SW,5.8,-,N/A,,Overcast,220,2012-11-27 14:35:00
9:55 AM,50.0,35.6,58,30.17,10.0,SW,5.8,-,N/A,,Overcast,230,2012-11-27 14:55:00
10:15 AM,51.8,35.6,54,30.16,10.0,SW,5.8,-,N/A,,Overcast,230,2012-11-27 15:15:00
10:35 AM,53.6,35.6,51,30.16,10.0,WSW,3.5,-,N/A,,Overcast,250,2012-11-27 15:35:00
10:55 AM,55.4,37.4,51,30.16,10.0,WSW,3.5,-,N/A,,Mostly Cloudy,250,2012-11-27 15:55:00
11:15 AM,57.2,37.4,48,30.16,10.0,WSW,4.6,-,N/A,,Mostly Cloudy,250,2012-11-27 16:15:00
11:35 AM,57.2,35.6,44,30.15,10.0,SW,6.9,-,N/A,,Overcast,230,2012-11-27 16:35:00
11:55 AM,59.0,33.8,39,30.14,10.0,SW,8.1,-,N/A,,Overcast,230,2012-11-27 16:55:00
12:15 PM,57.2,33.8,41,30.14,10.0,SSW,6.9,-,N/A,,Overcast,210,2012-11-27 17:15:00
12:35 PM,57.2,35.6,44,30.14,10.0,SW,6.9,-,N/A,,Overcast,220,2012-11-27 17:35:00
12:55 PM,-9999,-9999,N/A,30.13,-9999.0,WSW,12.7,-,N/A,,Unknown,240,2012-11-27 17:55:00
1:15 PM,55.4,35.6,47,30.13,10.0,SW,12.7,17.3,N/A,,Overcast,220,2012-11-27 18:15:00
1:35 PM,55.4,37.4,51,30.13,10.0,WSW,8.1,-,N/A,,Overcast,240,2012-11-27 18:35:00
1:55 PM,55.4,37.4,51,30.12,10.0,SW,8.1,-,N/A,,Overcast,230,2012-11-27 18:55:00
2:15 PM,55.4,37.4,51,30.12,10.0,SW,5.8,-,N/A,,Mostly Cloudy,230,2012-11-27 19:15:00
2:35 PM,55.4,39.2,54,30.11,10.0,WSW,5.8,-,N/A,,Overcast,240,2012-11-27 19:35:00
2:55 PM,55.4,39.2,54,30.11,10.0,WSW,6.9,-,N/A,,Overcast,240,2012-11-27 19:55:00
3:15 PM,53.6,39.2,58,30.10,10.0,Calm,Calm,-,N/A,,Overcast,0,2012-11-27 20:15:00
3:35 PM,53.6,41.0,62,30.11,10.0,Calm,Calm,-,N/A,,Overcast,0,2012-11-27 20:35:00
3:55 PM,53.6,42.8,67,30.13,10.0,NNW,3.5,-,N/A,,Overcast,340,2012-11-27 20:55:00
4:15 PM,51.8,42.8,71,30.14,10.0,NW,6.9,-,0.01,,Overcast,320,2012-11-27 21:15:00
4:35 PM,48.2,44.6,87,30.14,6.0,NW,3.5,-,0.02,,Overcast,320,2012-11-27 21:35:00
4:55 PM,48.2,44.6,87,30.14,5.0,Calm,Calm,-,0.03,,Overcast,0,2012-11-27 21:55:00
5:15 PM,48.2,44.6,87,30.15,10.0,Calm,Calm,-,N/A,,Overcast,0,2012-11-27 22:15:00
5:35 PM,48.2,44.6,87,30.15,10.0,Calm,Calm,-,N/A,,Mostly Cloudy,0,2012-11-27 22:35:00
5:55 PM,48.2,44.6,87,30.15,7.0,Calm,Calm,-,0.01,,Mostly Cloudy,0,2012-11-27 22:55:00
6:15 PM,48.2,44.6,87,30.16,7.0,Calm,Calm,-,N/A,,Overcast,0,2012-11-27 23:15:00
6:55 PM,46.4,44.6,93,30.16,9.0,Calm,Calm,-,0.02,,Overcast,0,2012-11-27 23:55:00
7:15 PM,46.4,44.6,93,30.16,10.0,NNE,3.5,-,N/A,,Overcast,30,2012-11-28 00:15:00
7:35 PM,46.4,42.8,87,30.17,10.0,NNE,3.5,-,N/A,,Overcast,20,2012-11-28 00:35:00
7:55 PM,46.4,42.8,87,30.18,10.0,NE,5.8,-,N/A,,Overcast,40,2012-11-28 00:55:00
8:15 PM,46.4,42.8,87,30.18,10.0,NE,5.8,-,N/A,,Overcast,40,2012-11-28 01:15:00
8:35 PM,46.4,42.8,87,30.19,9.0,NE,4.6,-,N/A,,Overcast,40,2012-11-28 01:35:00
8:55 PM,46.4,42.8,87,30.19,9.0,NE,3.5,-,N/A,,Overcast,40,2012-11-28 01:55:00
9:15 PM,46.4,42.8,87,30.19,10.0,NNE,8.1,-,N/A,,Overcast,30,2012-11-28 02:15:00
9:35 PM,46.4,42.8,87,30.20,10.0,NE,5.8,-,N/A,,Overcast,40,2012-11-28 02:35:00
9:55 PM,46.4,42.8,87,30.21,10.0,NNE,5.8,-,N/A,,Overcast,30,2012-11-28 02:55:00
10:15 PM,44.6,42.8,93,30.22,10.0,NE,6.9,-,N/A,,Overcast,40,2012-11-28 03:15:00
10:35 PM,44.6,41.0,87,30.22,10.0,NE,4.6,-,N/A,,Overcast,40,2012-11-28 03:35:00
10:55 PM,44.6,39.2,81,30.22,10.0,ENE,8.1,-,N/A,,Overcast,60,2012-11-28 03:55:00
11:15 PM,44.6,39.2,81,30.22,10.0,NE,8.1,-,N/A,,Overcast,40,2012-11-28 04:15:00
11:35 PM,44.6,37.4,76,30.23,10.0,NNE,4.6,-,N/A,,Overcast,20,2012-11-28 04:35:00
11:55 PM,42.8,37.4,81,30.23,10.0,NE,6.9,-,N/A,,Overcast,40,2012-11-28 04:55:00